FENGYUN 1C DEB, 31022

Orbit data source: Space-Track

FENGYUN 1C DEB, 31022 is space debris in SSO originally from a launch on Mon, 10 May 1999 UTC launched from the Taiyaun Space Center, China (TSC). Fengyun 1C debris stems from the Chinese weather satellite Fengyun-1C, which was intentionally destroyed by a Chinese anti-satellite missile in 2007. This event dramatically increased the amount of space debris, with thousands of trackable fragments posing hazards to satellites and human spaceflight. The Fengyun 1C debris cloud has become a focal point in discussions about space sustainability and the need for international regulations to prevent the creation of new debris.

Loading next visibility...
Identifier
31022, 1999-025BDQ
Orbit
SSO
Country
Flag of CNCN / PRC
Related business
Manufacturer
Unknown
Mission
Spacecraft
Bus & Motor
Unknown
Mass
Unknown
Launch date (UTC)
1999-05-10 (27 years ago)
Launch vehicle
Unknown
Launch site
Taiyaun Space Center, China (TSC)
Object type
Payload
Rocket body
Debris
Shape & HBR
Unknown shape, 0.1 m
Radar Cross Section
Small (<0.1 m²)

Expand to show TLE details & history
Last TLE update: 11 hours ago

TLE from 11 hours ago
0 FENGYUN 1C DEB
1 31022U 99025BDQ 26236.94289915  .00000301  00000-0  26466-3 0  9990
2 31022  99.4888 131.3387 0109323 158.3286 202.2551 13.90701217655557
Epoch: 2026-08-24T22:37Z
TLE epoch observation values (Epoch: 2026-08-24T22:37:46.486Z)
Latitude
0.00007°
Longitude
178.67764°
Altitude
1,003.066 km
Speed
7.313 km/s
True Right ascension
08h 45m 21s
True Declination
0° 00' 00"
Sunlit
Object was in daylight at epoch
Visualization orbit readout
Latitude
Unknown
Longitude
Unknown
Altitude
Unknown
Speed
Unknown
Apparent Right ascension
Unknown
Apparent Declination
Unknown
Sunlit
N/A
Visualization observer readout
Local Sidereal Time
00:46:50
Azimuth
Unknown
Elevation
Unknown
Doppler factor
Unknown
Orbital elements
Apogee altitude
1,003.233 km
Perigee altitude
843.588 km
Semi-major axis
7,301.547 km
Eccentricity
0.01093
Inclination
99.4888°
RAAN
131.3387°
Arg. of periapsis
158.3286°
True anomaly
201.78658°
Mean anomaly
202.2551°
Eccentric anomaly
202.02025°
Mean motion
3.47873 °/min
Orbital period
103.49 mins
BSTAR
0.00026466
Loading maneuver chart data...
Computing Atmospheric mass density...
Loading historical data...
Loading historical data...
Loading historical data...
Loading historical data...
Loading historical data...
Loading historical data...
Loading historical data...

Documentation

Showing up to 5 results
|